Regional Weather Roundup
Issued by NWS

Home | Current Version | Previous Version | Text Only | Print | Product List | Glossary Off
Versions: 1 2 3 4 5 6 7 8 9 10 11 12 13 14 15 16 17 18 19 20 21 22 23 24 25 26 27 28 29 30 31 32 33 34 35 36 37 38 39 40 41 42 43 44 45 46 47 48 49 50

000
ASUS43 KIND 220509
RWRIN

WEATHER ROUNDUP FOR INDIANA
NATIONAL WEATHER SERVICE INDIANAPOLIS IN
100 AM EDT MON MAY 22 2017

NOTE: "FAIR" INDICATES FEW OR NO CLOUDS BELOW 12,000 FEET WITH NO
SIGNIFICANT WEATHER AND/OR OBSTRUCTIONS TO VISIBILITY.

* - STATION DOES NOT REPORT WEATHER SUCH AS PRECIPITATION OR FOG.

+ - STATION NOT QUALITY CONTROLLED BY THE NATIONAL WEATHER SERVICE.
    USE DATA WITH CAUTION...ESPECIALLY DEWPOINT AND RELATIVE
    HUMIDITY OBSERVATIONS.

INZ001>003-010>013-019-020-220600-
NORTHWEST INDIANA

CITY           SKY/WX    TMP DP  RH WIND       PRES   REMARKS
GARY /AIRPORT/ CLOUDY    54  40  60 SW6       30.05F
KNOX *+        CLOUDY    50  32  50 SW8       30.05F
LA PORTE +     CLOUDY    50  40  68 W9        30.05F
MICHIGAN CITY+ CLOUDY    52  37  58 SW9G16    30.04F
MONTICELLO +   CLOUDY    51  43  74 SW6       30.07F
RENSSELAER +   CLOUDY    50  43  76 SW6       30.08F
VALPARAISO     CLOUDY    52  43  71 SW8       30.05F

$$

LMZ046-743>745-220600-
SOUTHERN LAKE MICHIGAN

STATION/POSITION TIME  TEMP    WIND        PRES    WAVE
                       AIR SEA DIR/SP/G            HT
                 (UTC) (F)     (DEG/KT/KT) (MB)    (FT)
BURNS HARBOR     0430   53     230/ 14/ 22 1017.9S
MICHIGAN CITY    0440   52     230/ 24/ 26   N/A
5NW MICH CITY    0500   52 53  250/ 16/ 21   N/A     4

$$

INZ004-005-014>016-021>024-220600-
NORTH CENTRAL INDIANA

CITY           SKY/WX    TMP DP  RH WIND       PRES   REMARKS
GOSHEN         CLOUDY    52  38  58 W17       30.04F
LOGANSPORT +   CLOUDY    50  43  76 W6        30.08F
PERU/GRISSOM   CLOUDY    51  44  77 W9        30.06F
ROCHESTER +    CLOUDY    52  41  66 W6        30.06F
SOUTH BEND     CLOUDY    51  40  65 W9        30.04F
WARSAW +       CLOUDY    52  39  62 W16G24    30.06S

$$

INZ006>009-017-018-025>027-220600-
NORTHEAST INDIANA

CITY           SKY/WX    TMP DP  RH WIND       PRES   REMARKS
ANGOLA *+      CLOUDY    54  46  76 W12       30.01S
AUBURN +       CLOUDY    54  45  71 W15G28    30.03S
FORT WAYNE     MOCLDY    54  46  74 W17G28    30.04F
HUNTINGTON +   CLOUDY    52  42  68 W12G22    30.05F
KENDALLVILLE + CLOUDY    52  46  78 W13G24    30.03F

$$

INZ028-029-035-036-043>045-051>053-220600-
WEST CENTRAL INDIANA

CITY           SKY/WX    TMP DP  RH WIND       PRES   REMARKS
CRAWFORDSVL +  CLEAR     48  43  83 W3        30.11F
GREENCASTLE +  CLEAR     52  41  66 W3        30.12S
LAFAYETTE      CLOUDY    51  44  77 SW6       30.10F
TERRE HAUTE    CLEAR     54  45  71 CALM      30.12F

$$

INZ030>032-037>040-046>048-054>057-064-065-220600-
CENTRAL INDIANA

CITY           SKY/WX    TMP DP  RH WIND       PRES   REMARKS
CP ATTERBURY + MOCLDY    55  46  71 NW17      30.11R
FISHERS *+     CLEAR     52  45  76 NW8G17    30.10F
FRANKFORT +    CLEAR     52  45  77 W6        30.11F
GREENWOOD *+   PTCLDY    56  42  59 NW12G22   30.10S
INDIANAPOLIS   CLEAR     53  41  63 NW12      30.10S
-EAGLE CREEK   CLEAR     54  42  64 NW9       30.09F
KOKOMO +       CLOUDY    52  44  74 W15       30.09F
MARION +       CLOUDY    52  45  76 W20G26    30.08S
MT COMFORT *+  PTCLDY    54  46  76 NW12G17   30.10S
SHELBYVILLE    PTCLDY    58  47  66 NW13      30.08F
ZIONSVILLE +   PTCLDY    51  41  68 W9        30.10F

$$

INZ033-034-041-042-049-050-058-059-220600-
EAST CENTRAL INDIANA

CITY           SKY/WX    TMP DP  RH WIND       PRES   REMARKS
MUNCIE         CLOUDY    56  47  71 NW21      30.07S
RICHMOND +     MOCLDY    55  50  82 NW12      30.07F

$$

INZ060-061-067>069-081>083-085>088-220600-
SOUTHWEST INDIANA

CITY           SKY/WX    TMP DP  RH WIND       PRES   REMARKS
EVANSVILLE     CLEAR     62  49  62 N9G20     30.11S
HUNTINGBURG *+ CLEAR     60  52  74 N8G20     30.11R
WASHINGTON +   CLOUDY    57  47  69 N10       30.13R

$$

INZ062-063-066-070>080-084-089>092-220600-
SOUTH CENTRAL AND SOUTHEAST INDIANA

CITY           SKY/WX    TMP DP  RH WIND       PRES   REMARKS
BEDFORD +      CLEAR     57  48  72 NW8G16    30.11R
BLOOMINGTON    CLEAR     56  43  61 NW7       30.12R
MADISON *+     CLEAR     61  50  67 NW9G16    30.10R
NORTH VERNON + MOCLDY    57  50  77 NW9       30.10R
SEYMOUR +      CLEAR     61  50  67 NW10      30.09R

$$





USA.gov is the U.S. government's official web portal to all federal, state and local government web resources and services.